Columbia Owens, SC

1:22 PM EST on December 12, 2017 (GMT -0500)
Columbia Owens Downtown

Weather History for KCUB - December, 2012

Change the Weather History Date:

Friday, December 7, 2012

  Actual Average Record
Temperature  
Mean Temperature 54 °F 50 °F  
Max Temperature 58 °F 61 °F 79 °F (1998)
Min Temperature 50 °F 39 °F 22 °F (2010)
Degree Days  
Heating Degree Days 11 15  
Month to date heating degree days 39 101  
Since 1 July heating degree days 473 472  
Cooling Degree Days 0 0  
Month to date cooling degree days 0 0  
Year to date cooling degree days 2516 2256  
Growing Degree Days 4 (Base 50)    
Moisture  
Dew Point 44 °F    
Average Humidity 72    
Maximum Humidity 93    
Minimum Humidity 59    
Precipitation  
Precipitation 0.00 in 0.11 in 0.24 in (2017)
Month to date precipitation 0.00 0.77  
Year to date precipitation 39.53 42.97  
Sea Level Pressure  
Sea Level Pressure 30.09 in    
Wind  
Wind Speed 2 mph (ENE)    
Max Wind Speed 7 mph    
Max Gust Speed 13 mph    
Visibility 9 miles    
Events      
T = Trace of Precipitation, MM = Missing Value Source: NWS Daily Summary

Daily Weather History Graph

Daily Weather History Graph

Search for Another Location

Airport or City:

Trip Planner

Search our weather history database for the weather conditions in past years. The results will help you decide how hot, cold, wet, or windy it might be!

Date:

Astronomy

Dec. 07, 2012 Rise Set
Actual Time 7:16 AM EST 5:14 PM EST
Civil Twilight 6:48 AM EST 5:42 PM EST
Nautical Twilight 6:17 AM EST 6:13 PM EST
Astronomical Twilight 5:47 AM EST 6:43 PM EST
Moon 12:49 AM EST (12/7) 12:57 PM EST (12/7)
Length of Visible Light 10h 53m
Length of Day
9h 58m
Last Quarter, 39% of the Moon is Illuminated
Dec 7
Last Quarter
Dec 13
New
Dec 20
First Quarter
Dec 28
Full
Jan 4
Last Quarter

Hourly Weather History & Observations

Time (EST) Temp. Dew Point Humidity Pressure Visibility Wind Dir Wind Speed Gust Speed Precip Events Conditions
12:53 AM 51.1 °F 37.0 °F 59% 30.18 in 10.0 mi Variable 4.6 mph - N/A   Overcast
1:53 AM 50.0 °F 37.0 °F 61% 30.16 in 10.0 mi Calm Calm - N/A   Overcast
2:53 AM 50.0 °F 37.0 °F 61% 30.15 in 10.0 mi Variable 5.8 mph - N/A   Overcast
3:53 AM 51.1 °F 37.0 °F 59% 30.14 in 10.0 mi Variable 3.5 mph - N/A   Overcast
4:53 AM 50.0 °F 37.9 °F 63% 30.14 in 10.0 mi Calm Calm - N/A   Overcast
5:53 AM 51.1 °F 37.9 °F 61% 30.13 in 10.0 mi ENE 4.6 mph - N/A   Overcast
6:19 AM 51.8 °F 37.4 °F 58% 30.14 in 10.0 mi Variable 5.8 mph - N/A   Overcast
6:53 AM 51.1 °F 39.0 °F 63% 30.14 in 10.0 mi Variable 3.5 mph - N/A   Overcast
7:53 AM 51.1 °F 39.9 °F 66% 30.14 in 10.0 mi Calm Calm - N/A   Overcast
8:53 AM 51.1 °F 41.0 °F 68% 30.14 in 10.0 mi Variable 4.6 mph - N/A   Overcast
9:53 AM 52.0 °F 42.1 °F 69% 30.15 in 10.0 mi Variable 4.6 mph - N/A   Overcast
10:53 AM 54.0 °F 43.0 °F 66% 30.14 in 10.0 mi Variable 4.6 mph - N/A   Overcast
11:53 AM 55.9 °F 44.1 °F 64% 30.10 in 10.0 mi Calm Calm - N/A   Overcast
12:53 PM 55.9 °F 46.0 °F 69% 30.06 in 10.0 mi Calm Calm - N/A   Overcast
1:53 PM 57.9 °F 46.9 °F 67% 30.04 in 10.0 mi Calm Calm - N/A   Overcast
2:53 PM 57.9 °F 48.0 °F 70% 30.03 in 9.0 mi Calm Calm - N/A   Overcast
3:53 PM 57.0 °F 48.9 °F 74% 30.02 in 10.0 mi ENE 3.5 mph - N/A   Overcast
4:53 PM 55.9 °F 48.9 °F 77% 30.04 in 10.0 mi Calm Calm - N/A   Overcast
5:21 PM 55.4 °F 48.2 °F 77% 30.04 in 10.0 mi Calm Calm - N/A   Overcast
5:53 PM 55.9 °F 48.9 °F 77% 30.04 in 10.0 mi Calm Calm - N/A   Overcast
6:53 PM 55.0 °F 48.9 °F 80% 30.05 in 10.0 mi Calm Calm - N/A   Overcast
9:01 PM 53.6 °F 50.0 °F 88% 30.05 in 8.0 mi Calm Calm - N/A   Overcast
9:53 PM 53.1 °F 51.1 °F 93% 30.05 in 6.0 mi Calm Calm - N/A   Overcast
10:08 PM 53.6 °F 51.8 °F 94% 30.05 in 5.0 mi Calm Calm - N/A   Overcast
10:53 PM 53.1 °F 51.1 °F 93% 30.04 in 3.0 mi Calm Calm - N/A   Overcast
11:53 PM 53.1 °F 51.1 °F 93% 30.05 in 5.0 mi Calm Calm - N/A   Overcast